UAE502 OMDB-VABB

Flight info

Callsign UAE502
Flight time 2h 15m
Altitude 35000
Route IVURO M677 LALDO B505 NADSO A777 VAXIM L301 KARKU M638 EXOLU POKON2A
Aircraft B77W/H-SDE1E2E3FGHIJ2J3J4J5M1RWXY/LB1D1

Departure

Time 2026-05-04 03:42
Airport Dubai International Airport (OMDB)

Arrival

Time 2026-05-04 05:57
Airport Chhatrapati Shivaji Maharaj International Airport (VABB)
Time Latitude Longitude Altitude Speed Heading
2026-05-04 03:22 25.24428 55.37217 31 ft 0 kts 211°
2026-05-04 03:32 25.24430 55.37218 26 ft 2 kts 211°
2026-05-04 03:32 25.24452 55.37233 28 ft 4 kts 211°
2026-05-04 03:32 25.24475 55.37248 31 ft 2 kts 211°
2026-05-04 03:33 25.24493 55.37262 31 ft 4 kts 233°
2026-05-04 03:33 25.24501 55.37287 31 ft 4 kts 281°
2026-05-04 03:33 25.24492 55.37312 32 ft 4 kts 302°
2026-05-04 03:33 25.24478 55.37336 32 ft 2 kts 302°
2026-05-04 03:34 25.24477 55.37338 32 ft 0 kts 302°
2026-05-04 03:36 25.24488 55.37318 32 ft 8 kts 302°
2026-05-04 03:36 25.24520 55.37262 30 ft 9 kts 302°
2026-05-04 03:36 25.24551 55.37206 29 ft 9 kts 302°
2026-05-04 03:36 25.24585 55.37146 30 ft 10 kts 302°
2026-05-04 03:37 25.24628 55.37069 27 ft 16 kts 301°
2026-05-04 03:37 25.24691 55.36958 31 ft 17 kts 302°
2026-05-04 03:37 25.24753 55.36845 26 ft 17 kts 295°
2026-05-04 03:37 25.24784 55.36718 29 ft 17 kts 283°
2026-05-04 03:38 25.24828 55.36596 29 ft 17 kts 301°
2026-05-04 03:38 25.24891 55.36484 30 ft 17 kts 301°
2026-05-04 03:38 25.24953 55.36371 29 ft 17 kts 302°
2026-05-04 03:38 25.25017 55.36258 29 ft 17 kts 301°
2026-05-04 03:39 25.25079 55.36146 31 ft 17 kts 301°
2026-05-04 03:39 25.25130 55.36079 29 ft 17 kts 319°
2026-05-04 03:39 25.25263 55.35982 31 ft 17 kts 320°
2026-05-04 03:39 25.25350 55.35898 30 ft 17 kts 353°
2026-05-04 03:40 25.25410 55.35920 29 ft 0 kts 31°
2026-05-04 03:40 25.25411 55.35921 29 ft 3 kts 31°
2026-05-04 03:41 25.25481 55.35969 30 ft 14 kts 36°
2026-05-04 03:41 25.25487 55.36068 26 ft 14 kts 121°
2026-05-04 03:41 25.25400 55.36228 27 ft 47 kts 121°
2026-05-04 03:41 25.25086 55.36790 28 ft 122 kts 121°
2026-05-04 03:42 25.24525 55.37787 40 ft 179 kts 122°
2026-05-04 03:42 25.23873 55.38985 535 ft 186 kts 123°
2026-05-04 03:42 25.23174 55.40238 1043 ft 197 kts 122°
2026-05-04 03:42 25.22463 55.41582 1498 ft 211 kts 120°
2026-05-04 03:43 25.21690 55.43067 1734 ft 236 kts 121°
2026-05-04 03:43 25.20834 55.44712 2024 ft 256 kts 120°
2026-05-04 03:43 25.20031 55.46455 2746 ft 251 kts 109°
2026-05-04 03:43 25.19755 55.48337 3434 ft 249 kts 88°
2026-05-04 03:44 25.19792 55.50266 3975 ft 256 kts 86°
2026-05-04 03:44 25.19852 55.52244 4675 ft 258 kts 88°
2026-05-04 03:44 25.19857 55.54229 5360 ft 260 kts 90°
2026-05-04 03:44 25.19824 55.56242 6036 ft 263 kts 91°
2026-05-04 03:45 25.19777 55.58272 6689 ft 266 kts 92°
2026-05-04 03:45 25.19778 55.60292 7254 ft 267 kts 81°
2026-05-04 03:45 25.20466 55.62193 7591 ft 276 kts 46°
2026-05-04 03:45 25.21951 55.63592 7760 ft 288 kts 33°
2026-05-04 03:46 25.23569 55.64978 8223 ft 300 kts 36°
2026-05-04 03:46 25.25191 55.66480 8867 ft 307 kts 37°
2026-05-04 03:46 25.26826 55.68017 9604 ft 310 kts 37°
2026-05-04 03:46 25.28459 55.69554 10288 ft 312 kts 37°
2026-05-04 03:47 25.30159 55.71149 10655 ft 332 kts 37°
2026-05-04 03:47 25.31983 55.72860 10834 ft 356 kts 37°
2026-05-04 03:47 25.33919 55.74706 11052 ft 375 kts 40°
2026-05-04 03:47 25.35504 55.77048 11329 ft 393 kts 65°
2026-05-04 03:48 25.36053 55.80018 12118 ft 395 kts 86°
2026-05-04 03:48 25.36125 55.83045 12738 ft 396 kts 83°
2026-05-04 03:48 25.36450 55.86097 13466 ft 401 kts 79°
2026-05-04 03:48 25.36833 55.89145 14348 ft 401 kts 80°
2026-05-04 03:49 25.37184 55.92218 15099 ft 404 kts 81°
2026-05-04 03:49 25.37308 55.95325 15554 ft 411 kts 94°
2026-05-04 03:49 25.36656 55.98435 16001 ft 418 kts 105°
2026-05-04 03:49 25.35809 56.01549 16488 ft 427 kts 103°
2026-05-04 03:50 25.35065 56.04743 17238 ft 430 kts 101°
2026-05-04 03:50 25.34377 56.07962 18048 ft 432 kts 101°
2026-05-04 03:50 25.33693 56.11217 18691 ft 437 kts 101°
2026-05-04 03:50 25.32995 56.14502 19304 ft 442 kts 101°
2026-05-04 03:51 25.32396 56.17840 19906 ft 444 kts 95°
2026-05-04 03:51 25.32094 56.21250 20542 ft 448 kts 91°
2026-05-04 03:51 25.31904 56.24669 21140 ft 452 kts 91°
2026-05-04 03:51 25.31703 56.28155 21724 ft 457 kts 91°
2026-05-04 03:52 25.31453 56.31683 22365 ft 462 kts 92°
2026-05-04 03:52 25.31162 56.35235 22967 ft 467 kts 93°
2026-05-04 03:52 25.30856 56.38827 23477 ft 472 kts 93°
2026-05-04 03:52 25.30669 56.42409 23921 ft 475 kts 89°
2026-05-04 03:53 25.30604 56.46124 24374 ft 480 kts 89°
2026-05-04 03:53 25.30511 56.49831 24820 ft 485 kts 89°
2026-05-04 03:53 25.30398 56.53576 25260 ft 490 kts 90°
2026-05-04 03:53 25.30140 56.57300 25722 ft 495 kts 96°
2026-05-04 03:54 25.29480 56.61050 26234 ft 499 kts 103°
2026-05-04 03:54 25.28490 56.64747 26670 ft 505 kts 109°
2026-05-04 03:54 25.27150 56.68356 27066 ft 510 kts 113°
2026-05-04 03:54 25.25727 56.71969 27457 ft 515 kts 112°
2026-05-04 03:55 25.24305 56.75622 27862 ft 520 kts 112°
2026-05-04 03:55 25.22885 56.79310 28268 ft 524 kts 112°
2026-05-04 03:55 25.21464 56.83028 28670 ft 528 kts 112°
2026-05-04 03:55 25.20037 56.86781 29068 ft 532 kts 112°
2026-05-04 03:56 25.18601 56.90564 29423 ft 537 kts 112°
2026-05-04 03:56 25.17153 56.94376 29791 ft 540 kts 112°
2026-05-04 03:56 25.15693 56.98214 30090 ft 544 kts 112°
2026-05-04 03:56 25.14227 57.02066 30464 ft 544 kts 112°
2026-05-04 03:57 25.12760 57.05910 30915 ft 543 kts 113°
2026-05-04 03:57 25.11297 57.09743 31379 ft 541 kts 113°
2026-05-04 03:57 25.09836 57.13564 31807 ft 541 kts 113°
2026-05-04 03:57 25.08371 57.17391 32187 ft 541 kts 113°
2026-05-04 03:58 25.05446 57.25026 33041 ft 539 kts 114°
2026-05-04 03:58 25.03984 57.28839 33472 ft 538 kts 114°
2026-05-04 03:58 25.02526 57.32635 33868 ft 538 kts 114°
2026-05-04 03:59 25.01068 57.36428 34215 ft 537 kts 114°
2026-05-04 03:59 24.99611 57.40218 34571 ft 536 kts 114°
2026-05-04 03:59 24.98150 57.44010 34714 ft 539 kts 114°
2026-05-04 03:59 24.96682 57.47821 34749 ft 540 kts 114°
2026-05-04 04:00 24.93762 57.55390 34762 ft 534 kts 114°
2026-05-04 04:00 24.90860 57.62898 34780 ft 532 kts 114°
2026-05-04 04:01 24.87960 57.70386 34778 ft 532 kts 114°
2026-05-04 04:01 24.85051 57.77889 34787 ft 534 kts 114°
2026-05-04 04:02 24.82101 57.85398 34773 ft 535 kts 116°
2026-05-04 04:02 24.78903 57.92722 34789 ft 535 kts 117°
2026-05-04 04:03 24.75600 58.00070 34775 ft 536 kts 117°
2026-05-04 04:03 24.72332 58.07447 34769 ft 536 kts 117°
2026-05-04 04:04 24.69088 58.14842 34769 ft 537 kts 117°
2026-05-04 04:04 24.65847 58.22228 34765 ft 537 kts 117°
2026-05-04 04:05 24.62600 58.29609 34774 ft 536 kts 117°
2026-05-04 04:05 24.59347 58.36984 34759 ft 536 kts 117°
2026-05-04 04:06 24.56089 58.44360 34763 ft 536 kts 117°
2026-05-04 04:06 24.52831 58.51722 34761 ft 536 kts 117°
2026-05-04 04:07 24.49569 58.59083 34778 ft 536 kts 117°
2026-05-04 04:07 24.46305 58.66438 34775 ft 536 kts 117°
2026-05-04 04:08 24.43063 58.73733 34768 ft 535 kts 117°
2026-05-04 04:08 24.39780 58.81117 34768 ft 534 kts 117°
2026-05-04 04:09 24.36550 58.88391 34775 ft 534 kts 117°
2026-05-04 04:09 24.33299 58.95707 34774 ft 534 kts 117°
2026-05-04 04:10 24.30045 59.03014 34762 ft 533 kts 117°
2026-05-04 04:10 24.26789 59.10313 34771 ft 533 kts 117°
2026-05-04 04:11 24.23533 59.17601 34774 ft 532 kts 117°
2026-05-04 04:11 24.20273 59.24887 34774 ft 532 kts 117°
2026-05-04 04:12 24.17012 59.32165 34780 ft 533 kts 117°
2026-05-04 04:12 24.13740 59.39454 34770 ft 534 kts 117°
2026-05-04 04:13 24.10463 59.46748 34769 ft 534 kts 117°
2026-05-04 04:13 24.07193 59.54005 34771 ft 534 kts 117°
2026-05-04 04:14 24.03921 59.61237 34776 ft 534 kts 117°
2026-05-04 04:14 24.00597 59.68574 35060 ft 538 kts 117°
2026-05-04 04:15 24.00057 59.69766 35178 ft 538 kts 117°
2026-05-04 04:15 23.97309 59.75828 35844 ft 533 kts 117°
2026-05-04 04:15 23.95668 59.79445 36243 ft 530 kts 117°
2026-05-04 04:15 23.94032 59.83048 36602 ft 528 kts 117°
2026-05-04 04:16 23.92927 59.85479 36719 ft 530 kts 117°
2026-05-04 04:16 23.91282 59.89094 36761 ft 533 kts 117°
2026-05-04 04:16 23.87985 59.96336 36759 ft 530 kts 117°
2026-05-04 04:17 23.84723 60.03491 36761 ft 525 kts 117°
2026-05-04 04:17 23.81466 60.10623 36771 ft 524 kts 117°
2026-05-04 04:18 23.78235 60.17688 36772 ft 524 kts 117°
2026-05-04 04:18 23.74971 60.24811 36770 ft 525 kts 117°
2026-05-04 04:19 23.71700 60.31942 36767 ft 526 kts 117°
2026-05-04 04:19 23.68419 60.39085 36770 ft 527 kts 117°
2026-05-04 04:20 23.65131 60.46230 36772 ft 528 kts 117°
2026-05-04 04:20 23.61831 60.53392 36760 ft 529 kts 117°
2026-05-04 04:21 23.58522 60.60561 36764 ft 529 kts 117°
2026-05-04 04:21 23.55212 60.67724 36762 ft 530 kts 117°
2026-05-04 04:22 23.51897 60.74886 36764 ft 528 kts 117°
2026-05-04 04:22 23.48586 60.82029 36768 ft 528 kts 117°
2026-05-04 04:23 23.45274 60.89164 36771 ft 528 kts 117°
2026-05-04 04:23 23.41981 60.96246 36770 ft 527 kts 117°
2026-05-04 04:24 23.38645 61.03413 36766 ft 527 kts 117°
2026-05-04 04:24 23.35349 61.10485 36761 ft 527 kts 117°
2026-05-04 04:25 23.32465 61.17803 36760 ft 526 kts 105°
2026-05-04 04:25 23.30933 61.25550 36768 ft 523 kts 94°
2026-05-04 04:26 23.30306 61.33420 36776 ft 522 kts 93°
2026-05-04 04:26 23.29652 61.41303 36771 ft 524 kts 93°
2026-05-04 04:27 23.28956 61.49191 36780 ft 524 kts 94°
2026-05-04 04:27 23.28242 61.57088 36770 ft 525 kts 94°
2026-05-04 04:28 23.27522 61.64990 36779 ft 525 kts 94°
2026-05-04 04:28 23.26801 61.72898 36772 ft 526 kts 94°
2026-05-04 04:29 23.26076 61.80813 36784 ft 526 kts 94°
2026-05-04 04:29 23.25348 61.88726 36777 ft 526 kts 94°
2026-05-04 04:30 23.24615 61.96633 36758 ft 526 kts 94°
2026-05-04 04:30 23.23879 62.04539 36772 ft 525 kts 94°
2026-05-04 04:31 23.23140 62.12428 36786 ft 524 kts 94°
2026-05-04 04:31 23.22400 62.20292 36777 ft 523 kts 94°
2026-05-04 04:32 23.21655 62.28160 36782 ft 523 kts 94°
2026-05-04 04:32 23.20913 62.35964 36781 ft 523 kts 94°
2026-05-04 04:33 23.20161 62.43824 36791 ft 523 kts 94°
2026-05-04 04:33 23.19406 62.51678 36783 ft 523 kts 94°
2026-05-04 04:34 23.18650 62.59497 36795 ft 523 kts 94°
2026-05-04 04:34 23.17883 62.67387 36786 ft 524 kts 94°
2026-05-04 04:35 23.17114 62.75266 36791 ft 525 kts 94°
2026-05-04 04:35 23.16342 62.83126 36792 ft 526 kts 94°
2026-05-04 04:36 23.15561 62.91039 36787 ft 528 kts 94°
2026-05-04 04:36 23.14781 62.98901 36781 ft 529 kts 94°
2026-05-04 04:37 23.13330 63.13412 36797 ft 529 kts 94°
2026-05-04 04:38 23.12350 63.23144 36788 ft 529 kts 94°
2026-05-04 04:38 23.11550 63.31041 36789 ft 529 kts 94°
2026-05-04 04:39 23.10736 63.39036 36791 ft 529 kts 94°
2026-05-04 04:39 23.09924 63.46979 36798 ft 529 kts 94°
2026-05-04 04:40 23.09246 63.53577 36794 ft 529 kts 94°
2026-05-04 04:40 23.08293 63.62805 36786 ft 529 kts 94°
2026-05-04 04:41 23.07463 63.70798 36791 ft 529 kts 94°
2026-05-04 04:41 23.06635 63.78740 36787 ft 530 kts 94°
2026-05-04 04:42 23.05505 63.86569 36786 ft 532 kts 102°
2026-05-04 04:42 23.03108 63.94180 36798 ft 534 kts 112°
2026-05-04 04:43 23.00222 64.01590 36793 ft 534 kts 112°
2026-05-04 04:43 22.97367 64.09058 36795 ft 535 kts 111°
2026-05-04 04:44 22.94540 64.16535 36795 ft 536 kts 111°
2026-05-04 04:44 22.91710 64.24031 36793 ft 537 kts 111°
2026-05-04 04:45 22.88874 64.31525 36790 ft 537 kts 111°
2026-05-04 04:47 22.78937 64.57649 36788 ft 536 kts 111°
2026-05-04 04:47 22.76087 64.65114 36783 ft 535 kts 111°
2026-05-04 04:48 22.73239 64.72562 36791 ft 535 kts 112°
2026-05-04 04:49 22.66600 64.89877 36787 ft 534 kts 112°
2026-05-04 04:49 22.63749 64.97293 36797 ft 533 kts 112°
2026-05-04 04:50 22.60894 65.04706 36783 ft 533 kts 112°
2026-05-04 04:50 22.58037 65.12116 36789 ft 533 kts 112°
2026-05-04 04:51 22.55175 65.19524 36789 ft 534 kts 112°
2026-05-04 04:51 22.52310 65.26929 36783 ft 534 kts 112°
2026-05-04 04:52 22.49439 65.34336 36790 ft 534 kts 112°
2026-05-04 04:52 22.46562 65.41747 36791 ft 535 kts 112°
2026-05-04 04:53 22.43679 65.49163 36784 ft 535 kts 112°
2026-05-04 04:53 22.40792 65.56579 36779 ft 535 kts 112°
2026-05-04 04:54 22.37903 65.63984 36791 ft 535 kts 112°
2026-05-04 04:54 22.35012 65.71385 36791 ft 535 kts 112°
2026-05-04 04:55 22.32129 65.78755 36786 ft 537 kts 112°
2026-05-04 04:55 22.29215 65.86191 36791 ft 538 kts 112°
2026-05-04 04:56 22.26300 65.93617 36800 ft 540 kts 112°
2026-05-04 04:56 22.23366 66.01081 36794 ft 541 kts 112°
2026-05-04 04:57 22.20419 66.08566 36772 ft 542 kts 112°
2026-05-04 04:57 22.17476 66.16030 36782 ft 540 kts 112°
2026-05-04 04:58 22.14536 66.23474 36786 ft 539 kts 112°
2026-05-04 04:58 22.11600 66.30898 36790 ft 537 kts 112°
2026-05-04 04:59 22.08670 66.38295 36790 ft 536 kts 112°
2026-05-04 04:59 22.05739 66.45685 36792 ft 536 kts 112°
2026-05-04 05:00 22.02805 66.53064 36793 ft 535 kts 112°
2026-05-04 05:01 21.98395 66.64126 36794 ft 536 kts 112°
2026-05-04 05:01 21.95450 66.71506 36800 ft 536 kts 112°
2026-05-04 05:02 21.92503 66.78879 36794 ft 536 kts 112°
2026-05-04 05:02 21.89554 66.86248 36800 ft 536 kts 112°
2026-05-04 05:03 21.86599 66.93619 36808 ft 536 kts 112°
2026-05-04 05:04 21.80685 67.08337 36796 ft 536 kts 112°
2026-05-04 05:04 21.77745 67.15636 36800 ft 535 kts 112°
2026-05-04 05:06 21.65911 67.44912 36802 ft 532 kts 113°
2026-05-04 05:07 21.62956 67.52197 36804 ft 532 kts 113°
2026-05-04 05:07 21.59997 67.59478 36807 ft 532 kts 113°
2026-05-04 05:09 21.46641 67.92213 36808 ft 531 kts 113°
2026-05-04 05:10 21.43672 67.99463 36805 ft 530 kts 113°
2026-05-04 05:10 21.40701 68.06703 36809 ft 530 kts 113°
2026-05-04 05:11 21.37730 68.13936 36810 ft 530 kts 113°
2026-05-04 05:11 21.34753 68.21171 36817 ft 530 kts 113°
2026-05-04 05:12 21.31775 68.28400 36813 ft 530 kts 113°
2026-05-04 05:12 21.28814 68.35577 36809 ft 529 kts 114°
2026-05-04 05:13 21.25831 68.42794 36817 ft 529 kts 114°
2026-05-04 05:13 21.22848 68.50003 36815 ft 529 kts 114°
2026-05-04 05:14 21.19862 68.57209 36816 ft 529 kts 114°
2026-05-04 05:14 21.16874 68.64410 36822 ft 529 kts 114°
2026-05-04 05:15 21.13878 68.71619 36820 ft 530 kts 114°
2026-05-04 05:15 21.10878 68.78828 36818 ft 530 kts 114°
2026-05-04 05:16 21.07877 68.86032 36806 ft 530 kts 114°
2026-05-04 05:16 21.04873 68.93230 36818 ft 529 kts 114°
2026-05-04 05:17 21.01866 69.00426 36815 ft 529 kts 114°
2026-05-04 05:17 20.98859 69.07616 36817 ft 529 kts 114°
2026-05-04 05:18 20.96100 69.14914 36811 ft 529 kts 108°
2026-05-04 05:18 20.93895 69.22418 36831 ft 529 kts 107°
2026-05-04 05:19 20.91705 69.29930 36822 ft 529 kts 107°
2026-05-04 05:19 20.89464 69.37435 36823 ft 530 kts 108°
2026-05-04 05:20 20.87194 69.44928 36819 ft 530 kts 108°
2026-05-04 05:20 20.84915 69.52428 36823 ft 530 kts 108°
2026-05-04 05:21 20.82635 69.59924 36825 ft 531 kts 108°
2026-05-04 05:21 20.80368 69.67374 36826 ft 531 kts 108°
2026-05-04 05:22 20.78082 69.74878 36826 ft 531 kts 108°
2026-05-04 05:22 20.75791 69.82381 36827 ft 531 kts 108°
2026-05-04 05:23 20.73497 69.89882 36832 ft 531 kts 108°
2026-05-04 05:23 20.71198 69.97386 36826 ft 532 kts 108°
2026-05-04 05:24 20.68895 70.04889 36827 ft 532 kts 108°
2026-05-04 05:24 20.66590 70.12389 36823 ft 532 kts 108°
2026-05-04 05:25 20.64280 70.19889 36824 ft 532 kts 108°
2026-05-04 05:25 20.61969 70.27383 36814 ft 531 kts 108°
2026-05-04 05:26 20.59656 70.34868 36819 ft 530 kts 108°
2026-05-04 05:26 20.57345 70.42334 36823 ft 530 kts 108°
2026-05-04 05:28 20.48069 70.72178 36823 ft 530 kts 108°
2026-05-04 05:29 20.45744 70.79626 36821 ft 530 kts 108°
2026-05-04 05:29 20.43428 70.87034 36823 ft 530 kts 109°
2026-05-04 05:31 20.34067 71.16852 36828 ft 530 kts 109°
2026-05-04 05:32 20.31719 71.24301 36829 ft 530 kts 109°
2026-05-04 05:33 20.28194 71.35461 36832 ft 530 kts 109°
2026-05-04 05:33 20.25839 71.42903 36089 ft 532 kts 109°
2026-05-04 05:33 20.24665 71.46607 35395 ft 524 kts 108°
2026-05-04 05:34 20.23496 71.50296 34564 ft 528 kts 108°
2026-05-04 05:34 20.22315 71.54013 33676 ft 530 kts 108°
2026-05-04 05:34 20.20866 71.57627 32672 ft 533 kts 121°
2026-05-04 05:34 20.18589 71.60718 31780 ft 529 kts 135°
2026-05-04 05:35 20.16066 71.63489 31617 ft 517 kts 131°
2026-05-04 05:35 20.11959 71.69885 31609 ft 531 kts 121°
2026-05-04 05:36 20.08019 71.76477 31603 ft 529 kts 123°
2026-05-04 05:36 20.03913 71.83078 31618 ft 538 kts 124°
2026-05-04 05:37 20.00486 71.88540 31435 ft 532 kts 124°
2026-05-04 05:37 19.98433 71.91816 31097 ft 533 kts 124°
2026-05-04 05:37 19.96373 71.95106 30711 ft 536 kts 124°
2026-05-04 05:38 19.92247 72.01707 30176 ft 535 kts 123°
2026-05-04 05:38 19.90196 72.04990 29995 ft 532 kts 123°
2026-05-04 05:38 19.88155 72.08253 29789 ft 528 kts 123°
2026-05-04 05:38 19.86133 72.11485 29428 ft 524 kts 123°
2026-05-04 05:39 19.84120 72.14701 29041 ft 521 kts 123°
2026-05-04 05:39 19.80133 72.21064 27767 ft 513 kts 123°
2026-05-04 05:39 19.78163 72.24203 27155 ft 508 kts 123°
2026-05-04 05:40 19.74295 72.30365 25956 ft 499 kts 124°
2026-05-04 05:40 19.72380 72.33412 25350 ft 495 kts 124°
2026-05-04 05:40 19.70503 72.36399 24752 ft 491 kts 124°
2026-05-04 05:41 19.68589 72.39442 24149 ft 487 kts 124°
2026-05-04 05:41 19.66744 72.42376 23540 ft 470 kts 124°
2026-05-04 05:41 19.64947 72.45231 22893 ft 463 kts 124°
2026-05-04 05:41 19.63191 72.48020 22290 ft 459 kts 124°
2026-05-04 05:42 19.61424 72.50824 21724 ft 455 kts 124°
2026-05-04 05:42 19.59673 72.53601 21142 ft 451 kts 124°
2026-05-04 05:42 19.57936 72.56357 20587 ft 448 kts 124°
2026-05-04 05:42 19.56209 72.59093 20042 ft 444 kts 124°
2026-05-04 05:43 19.54511 72.61783 19486 ft 441 kts 124°
2026-05-04 05:43 19.52812 72.64473 18923 ft 438 kts 124°
2026-05-04 05:43 19.51118 72.67154 18375 ft 436 kts 124°
2026-05-04 05:45 19.39813 72.85017 14545 ft 406 kts 124°
2026-05-04 05:45 19.38239 72.87499 14014 ft 405 kts 124°
2026-05-04 05:47 19.27964 73.03684 11719 ft 322 kts 123°
2026-05-04 05:47 19.26736 73.05618 11586 ft 311 kts 123°
2026-05-04 05:47 19.25542 73.07497 11421 ft 304 kts 123°
2026-05-04 05:48 19.24766 73.08716 11329 ft 298 kts 123°
2026-05-04 05:48 19.23237 73.11118 11090 ft 292 kts 123°
2026-05-04 05:48 19.22101 73.12904 10980 ft 292 kts 122°
2026-05-04 05:48 19.21219 73.14795 10779 ft 284 kts 98°
2026-05-04 05:49 19.21219 73.16858 10645 ft 281 kts 81°
2026-05-04 05:49 19.21293 73.18949 10406 ft 289 kts 95°
2026-05-04 05:49 19.20637 73.20966 10178 ft 295 kts 123°
2026-05-04 05:49 19.19197 73.22491 9976 ft 294 kts 150°
2026-05-04 05:51 19.09373 73.18194 8416 ft 246 kts 269°
2026-05-04 05:51 19.09285 73.16434 8337 ft 235 kts 271°
2026-05-04 05:52 19.09250 73.14728 8122 ft 230 kts 272°
2026-05-04 05:52 19.09229 73.13044 7854 ft 229 kts 272°
2026-05-04 05:52 19.09209 73.11369 7579 ft 228 kts 272°
2026-05-04 05:52 19.09188 73.09683 7151 ft 232 kts 272°
2026-05-04 05:53 19.09165 73.07936 6622 ft 241 kts 272°
2026-05-04 05:54 19.09014 72.97262 2583 ft 184 kts 267°
2026-05-04 05:55 19.08982 72.95918 1982 ft 181 kts 266°
2026-05-04 05:55 19.08952 72.94614 1483 ft 173 kts 266°
2026-05-04 05:55 19.08956 72.93365 977 ft 168 kts 268°
2026-05-04 05:55 19.08949 72.92227 739 ft 144 kts 266°
2026-05-04 05:56 19.08918 72.91176 694 ft 146 kts 266°
2026-05-04 05:56 19.08917 72.90081 516 ft 150 kts 266°
2026-05-04 05:56 19.08905 72.88991 327 ft 147 kts 266°
2026-05-04 05:56 19.08887 72.87927 116 ft 144 kts 266°
2026-05-04 05:57 19.08871 72.86899 41 ft 132 kts 267°
2026-05-04 05:57 19.08858 72.86076 32 ft 89 kts 269°
2026-05-04 05:57 19.08855 72.85618 31 ft 41 kts 269°
2026-05-04 05:57 19.08852 72.85416 32 ft 26 kts 269°
2026-05-04 05:58 19.08851 72.85224 31 ft 26 kts 273°
2026-05-04 05:58 19.08908 72.85131 30 ft 8 kts 338°
2026-05-04 05:58 19.08962 72.85124 29 ft 8 kts 358°
2026-05-04 05:58 19.08983 72.85124 29 ft 0 kts 358°
2026-05-04 05:59 19.08984 72.85124 29 ft 0 kts 358°
2026-05-04 05:59 19.08999 72.85124 29 ft 7 kts
2026-05-04 06:00 19.09025 72.85173 30 ft 10 kts 92°
2026-05-04 06:00 19.09022 72.85267 30 ft 15 kts 91°
2026-05-04 06:00 19.09024 72.85383 31 ft 16 kts 88°
2026-05-04 06:00 19.09026 72.85500 31 ft 16 kts 89°
2026-05-04 06:01 19.09026 72.85604 32 ft 11 kts 90°
2026-05-04 06:01 19.09026 72.85659 32 ft 3 kts 90°
2026-05-04 06:03 19.09027 72.85792 33 ft 9 kts 89°
2026-05-04 06:03 19.09027 72.85813 33 ft 0 kts 89°
2026-05-04 06:05 19.09041 72.86617 38 ft 17 kts 90°
2026-05-04 06:05 19.09043 72.86863 38 ft 17 kts 89°
2026-05-04 06:05 19.09046 72.86987 38 ft 17 kts 89°
2026-05-04 06:06 19.09047 72.87109 39 ft 17 kts 91°
2026-05-04 06:06 19.09051 72.87232 39 ft 17 kts 81°
2026-05-04 06:06 19.09143 72.87261 39 ft 15 kts 359°
2026-05-04 06:06 19.09239 72.87288 39 ft 15 kts 63°
2026-05-04 06:07 19.09297 72.87362 39 ft 15 kts
2026-05-04 06:07 19.09390 72.87405 39 ft 15 kts 48°
2026-05-04 06:07 19.09394 72.87508 40 ft 15 kts 123°
2026-05-04 06:07 19.09340 72.87604 40 ft 15 kts 112°
2026-05-04 06:08 19.09344 72.87712 41 ft 15 kts 71°
2026-05-04 06:08 19.09412 72.87795 41 ft 15 kts 29°
2026-05-04 06:08 19.09511 72.87836 41 ft 15 kts 18°
2026-05-04 06:08 19.09603 72.87802 41 ft 14 kts 289°
2026-05-04 06:09 19.09593 72.87753 41 ft 4 kts 244°
2026-05-04 06:09 19.09587 72.87741 41 ft 0 kts 244°